Vorticity
9 9 14 7 1 6 10 9 10 12 13 13 12 11 13 13 13 13 11 11 10 9 8 8 8 8 8 7 6 7 8 9 8 6 8 9 9 8 6 4 5 8 8 7 6 7 9 9 7 7 6 5 4 5 8 12 12 11 9 8 8 10 13
9 12 13 1 1 11 14 16 17 15 17 20 19 18 16 15 15 15 15 14 11 10 9 8 9 8 8 7 7 9 10 7 5 6 8 8 7 6 6 6 8 9 6 3 3 5 6 5 6 6 6 8 9 6 5 6 6 5 3 5 9 11 11
9 12 8 -0 9 14 8 11 16 16 19 16 15 15 12 13 15 15 15 16 14 13 11 9 9 8 7 8 9 9 8 5 5 7 8 7 6 6 7 9 10 9 7 6 6 3 -1 1 5 7 8 10 10 10 10 10 10 9 4 3 6 8 10
6 11 9 4 8 7 2 5 4 5 7 5 5 8 9 12 14 13 13 15 16 16 15 12 9 9 8 9 9 7 4 5 7 8 8 6 6 8 9 9 9 8 6 7 5 -1 -4 0 5 9 11 9 5 4 5 6 10 12 10 8 7 5 4
12 15 14 6 7 5 -1 -0 -1 -0 1 1 1 1 4 12 16 16 15 14 17 17 15 12 8 8 9 8 6 5 5 7 8 7 7 8 10 11 8 5 4 5 7 8 7 3 2 4 6 6 7 7 7 7 10 12 13 15 12 9 9 10 10
8 15 15 3 3 4 1 -0 1 3 2 -1 -1 -2 1 9 16 18 14 14 18 17 13 11 7 6 6 5 5 5 7 8 8 8 9 10 10 7 4 3 2 2 3 3 5 8 6 5 7 4 0 4 8 8 9 11 18 27 26 17 11 9 9
15 7 6 5 1 -2 1 1 -2 3 8 5 1 -1 -2 2 12 17 14 13 17 16 13 10 7 7 5 5 7 8 9 9 9 11 10 7 5 4 5 4 4 3 -0 -0 6 9 8 7 5 -2 -5 0 5 7 9 12 19 30 36 36 34 28 20
34 11 -4 0 1 -1 3 3 1 4 10 12 6 1 -1 -0 8 15 14 14 16 16 15 12 11 12 10 9 10 10 9 10 11 10 6 3 1 3 3 3 6 4 -1 2 3 -7 -7 1 2 1 3 5 8 14 19 24 25 23 27 31 31 33 32
27 19 6 1 -1 5 6 2 4 2 0 6 5 3 5 1 2 12 15 13 14 15 14 13 14 14 12 10 11 11 10 9 8 7 6 5 1 2 3 3 4 4 4 11 12 4 3 4 -1 1 2 -2 7 15 12 18 19 8 3 -3 -9 -1 10
13 11 6 4 1 6 5 -2 1 1 -2 1 -1 1 9 3 -1 11 16 9 4 6 8 10 12 14 14 12 12 12 10 6 6 7 5 3 2 6 8 3 2 7 11 11 7 6 6 -3 -7 6 8 0 10 16 7 10 15 6 -2 -9 -12 -2 3
32 29 12 3 1 2 0 -2 4 6 5 6 3 3 10 4 -2 7 18 12 2 2 6 5 8 14 15 13 11 10 7 6 6 4 1 1 6 9 6 3 4 3 2 1 1 8 13 11 15 27 25 13 13 14 6 7 12 10 8 5 4 8 9
12 29 15 -2 2 6 -1 -1 9 12 11 14 13 9 7 5 -1 3 15 16 7 6 9 5 8 16 16 10 8 8 7 5 0 -1 2 4 6 8 7 11 15 7 5 12 17 20 23 21 18 15 12 9 7 6 5 7 9 7 6 7 7 8 10
-8 7 5 -2 4 6 -0 3 13 14 14 16 14 9 6 3 0 4 14 17 10 8 9 7 10 16 13 5 5 6 3 -3 -6 1 9 5 1 5 6 5 6 2 5 12 10 7 8 6 3 -1 0 4 7 9 9 7 6 7 6 6 7 9 14
2 5 0 -3 1 2 2 8 12 12 12 11 8 5 3 2 2 7 15 16 10 7 7 8 10 12 9 3 3 5 -1 -5 0 9 11 6 3 4 2 -1 0 2 6 8 4 3 4 4 3 1 -2 -2 2 11 17 14 8 6 7 6 6 8 13
11 23 14 1 -3 0 5 8 8 8 8 8 6 3 2 3 7 12 17 16 11 6 6 7 8 9 7 3 2 4 3 4 10 12 7 5 3 2 3 7 10 10 12 12 9 5 3 2 3 3 0 -3 -4 -1 10 19 17 9 5 6 7 8 10
7 13 13 10 4 2 5 6 5 5 6 5 3 3 4 5 8 13 19 17 9 4 4 5 6 6 6 6 5 6 7 7 8 7 3 1 0 1 6 10 10 9 10 12 11 8 6 4 4 3 2 2 1 -1 1 11 20 17 10 7 7 8 10
7 -1 4 12 10 4 0 -0 1 2 5 5 2 3 5 4 6 13 16 10 3 3 4 4 7 6 6 7 7 7 9 9 8 7 4 1 -0 0 3 5 6 7 7 8 8 5 3 2 1 1 1 3 6 5 1 2 13 21 14 6 7 8 10
7 4 6 9 8 8 3 -1 1 2 3 4 2 3 4 2 5 11 13 7 3 4 4 2 5 4 3 7 9 13 19 20 17 13 6 2 -0 1 2 2 4 7 7 7 8 5 2 1 -0 -1 -0 1 1 3 6 4 7 16 15 6 6 8 9
9 4 5 5 5 12 13 7 4 3 3 3 2 2 2 2 5 10 10 6 3 2 1 2 5 5 8 13 13 13 13 12 10 5 -0 -2 -1 2 4 3 5 7 5 5 4 2 2 1 1 1 -0 1 1 0 6 9 6 13 17 8 5 10 12
4 5 7 8 4 4 7 8 6 6 5 3 1 2 2 1 3 7 7 4 4 4 3 4 4 7 14 19 12 3 -1 -2 -2 -4 -7 -4 -1 2 3 4 5 4 2 4 2 3 5 2 1 3 -1 2 5 -1 5 14 12 13 16 9 6 12 13
3 9 9 12 12 8 5 4 4 5 6 5 2 2 3 3 3 6 5 3 4 5 4 4 4 3 5 6 2 -0 0 2 2 0 -1 -1 0 1 2 2 3 0 -2 1 1 4 9 8 7 5 1 3 4 1 12 25 18 11 15 13 9 11 11
6 7 7 9 6 4 5 4 2 3 7 8 5 3 3 3 3 4 3 2 3 2 1 3 2 -3 -7 -7 -2 3 4 3 3 3 4 5 3 2 2 1 2 2 -0 -0 2 3 6 8 11 11 8 7 4 8 26 33 18 11 16 14 9 9 10
1 1 12 16 4 -5 1 5 4 5 7 7 5 5 6 5 5 5 3 1 1 1 1 -1 -5 -6 -5 -2 3 8 8 7 6 2 1 4 2 0 2 4 4 4 1 -1 2 6 6 6 9 11 12 12 11 17 27 23 12 12 17 13 8 9 10
8 8 18 24 13 1 1 5 6 7 7 6 8 11 10 7 5 4 2 2 2 1 -1 -3 -2 2 3 1 2 4 4 8 12 7 -0 -0 1 -0 2 5 5 5 1 -2 2 9 10 10 11 14 17 17 16 17 16 11 12 17 16 11 8 10 11
14 17 20 20 13 4 1 6 7 4 2 5 10 13 11 7 5 3 3 3 2 -0 -1 -1 2 3 1 0 2 2 1 5 13 14 6 1 -1 -2 1 5 6 3 -2 -2 4 10 13 16 19 21 20 16 14 14 12 12 17 16 11 9 8 9 12
14 19 23 20 12 4 2 6 5 2 3 7 9 9 6 5 5 4 2 1 0 1 1 1 2 2 1 3 3 4 5 6 9 11 8 2 -3 -2 3 6 6 3 -0 3 12 17 17 20 21 19 18 17 17 18 17 16 16 12 9 9 7 8 11
13 19 24 20 14 9 8 8 5 2 1 2 4 5 3 3 3 1 0 2 2 3 4 5 4 2 2 3 4 7 10 9 9 9 5 -1 -3 1 5 4 3 5 7 11 19 22 20 19 20 20 23 25 24 21 19 16 12 8 8 8 8 7 8
16 23 22 17 17 18 14 8 3 2 3 1 1 3 2 1 1 1 1 2 2 2 2 1 -1 -0 4 7 9 9 7 6 8 7 5 6 6 4 2 2 3 7 13 19 24 24 20 19 20 20 19 19 17 13 13 12 9 6 7 9 9 7 6
19 24 22 18 20 19 13 6 0 -0 2 1 1 4 6 4 3 3 3 2 2 3 1 1 6 13 16 12 4 -4 -5 -0 2 2 8 14 12 6 3 1 1 6 15 21 23 20 16 14 12 11 9 8 9 9 9 10 7 6 7 8 8 8 9
19 22 21 19 17 12 8 7 5 2 -1 -1 2 4 7 8 6 4 5 5 3 3 4 9 15 14 7 1 -1 -1 4 13 19 23 24 16 6 7 7 -1 -3 6 16 18 16 13 10 8 6 6 6 6 8 9 8 7 6 7 8 10 11 9 8
11 15 17 18 17 15 12 11 10 8 5 5 4 2 2 5 6 5 6 6 4 5 9 11 6 -2 -7 -2 8 13 14 16 23 27 20 7 3 9 7 -3 -2 10 16 14 11 8 6 5 4 5 6 8 9 8 6 6 8 8 8 11 11 6 5
7 10 13 16 18 19 16 10 5 4 5 6 7 7 5 4 4 5 5 6 7 9 11 7 1 -2 1 7 11 12 10 11 14 14 8 4 7 8 3 -2 4 14 17 11 6 4 3 3 3 5 6 8 7 5 6 6 4 4 9 14 11 4 6
9 11 12 14 18 18 13 6 2 1 3 3 5 6 5 4 7 8 8 8 9 9 5 3 3 4 6 9 9 6 4 5 8 9 7 6 6 4 1 2 7 14 17 10 2 2 4 3 4 6 7 7 7 7 8 6 4 12 20 17 6 1 5
11 14 13 14 18 18 13 7 5 3 3 4 4 4 5 7 9 9 10 11 9 5 0 -2 -0 2 5 9 7 3 2 3 4 6 7 7 7 5 2 4 9 13 15 9 3 5 8 7 7 8 7 8 9 9 8 7 10 17 15 3 -2 3 8
9 11 11 12 15 15 14 11 6 2 2 4 6 5 5 7 10 11 12 9 3 2 3 2 1 4 6 5 2 1 4 5 3 3 4 6 9 9 5 6 10 12 11 9 7 10 10 8 7 7 7 9 9 8 7 7 8 9 6 1 4 9 10
13 10 8 9 10 10 11 10 6 2 1 2 7 11 10 8 8 4 -1 -2 1 3 2 -2 -0 5 5 2 3 7 5 1 2 5 4 3 7 10 10 9 9 9 11 11 11 11 10 7 6 7 7 8 8 6 6 6 7 8 8 8 9 10 11
12 10 11 14 15 14 13 12 10 7 6 7 11 14 10 5 2 -2 -2 4 7 3 -0 -1 1 5 4 2 5 7 4 3 7 8 2 2 9 12 9 6 6 8 12 13 11 9 7 6 7 7 8 8 7 7 9 11 12 12 10 10 11 15 20
11 10 11 11 11 12 11 11 10 8 8 11 10 6 2 3 4 4 6 8 6 5 10 12 8 4 4 4 4 4 4 6 8 5 4 11 17 13 6 4 6 10 13 12 9 6 6 6 7 9 10 10 9 11 13 12 11 9 9 11 14 18 21
Height
5887 5889 5891 5891 5891 5893 5896 5897 5898 5899 5899 5899 5900 5900 5900 5900 5900 5900 5900 5901 5901 5902 5903 5904 5904 5905 5906 5906 5907 5908 5908 5908 5908 5908 5908 5908 5907 5907 5906 5906 5906 5905 5905 5904 5903 5903 5902 5901 5900 5900 5899 5898 5897 5896 5895 5894 5893 5892 5890 5889 5888 5887 5887
5884 5886 5889 5891 5891 5892 5894 5895 5896 5896 5897 5897 5898 5898 5898 5898 5898 5898 5898 5898 5898 5899 5900 5901 5902 5902 5903 5903 5904 5905 5906 5906 5906 5906 5906 5906 5905 5905 5905 5904 5904 5903 5903 5902 5902 5901 5900 5899 5899 5898 5898 5897 5896 5894 5893 5891 5890 5889 5888 5887 5885 5884 5883
5882 5884 5887 5889 5889 5890 5891 5892 5893 5895 5895 5896 5896 5896 5896 5896 5896 5896 5895 5895 5896 5896 5897 5898 5899 5900 5900 5901 5902 5903 5903 5903 5903 5904 5904 5904 5903 5903 5903 5903 5902 5901 5901 5900 5900 5899 5898 5898 5897 5897 5896 5895 5894 5892 5890 5889 5888 5887 5886 5884 5883 5882 5881
5881 5882 5883 5884 5885 5887 5889 5890 5892 5893 5893 5894 5894 5894 5895 5894 5894 5893 5893 5893 5894 5894 5895 5896 5896 5897 5897 5898 5899 5900 5900 5901 5901 5901 5902 5902 5902 5902 5901 5900 5900 5899 5899 5898 5897 5897 5896 5895 5894 5894 5893 5892 5891 5890 5888 5886 5885 5884 5882 5881 5880 5879 5878
5878 5879 5879 5879 5882 5885 5887 5888 5889 5890 5891 5892 5892 5893 5893 5892 5892 5891 5892 5892 5892 5892 5893 5893 5893 5894 5895 5896 5897 5898 5897 5898 5899 5899 5900 5900 5900 5899 5898 5897 5897 5896 5896 5895 5894 5894 5893 5892 5892 5891 5890 5889 5888 5887 5885 5882 5881 5880 5878 5877 5876 5874 5874
5875 5877 5877 5876 5879 5882 5885 5886 5887 5888 5889 5890 5890 5891 5891 5891 5890 5890 5890 5890 5890 5890 5891 5891 5891 5892 5893 5894 5894 5895 5895 5896 5896 5897 5897 5898 5897 5896 5895 5894 5894 5894 5893 5892 5892 5891 5891 5890 5889 5888 5887 5886 5885 5883 5881 5879 5876 5875 5873 5872 5871 5869 5868
5873 5875 5876 5875 5876 5880 5882 5883 5885 5886 5887 5887 5888 5889 5889 5889 5889 5888 5888 5888 5888 5888 5889 5889 5889 5890 5891 5891 5892 5892 5893 5893 5894 5895 5895 5895 5894 5893 5892 5892 5891 5891 5891 5890 5890 5890 5889 5889 5888 5886 5885 5883 5882 5880 5877 5875 5872 5870 5868 5867 5865 5864 5863
5871 5873 5875 5874 5874 5877 5880 5881 5883 5883 5884 5885 5885 5887 5887 5887 5887 5887 5886 5886 5886 5886 5887 5887 5887 5888 5888 5889 5889 5890 5891 5891 5892 5892 5892 5892 5891 5890 5890 5890 5890 5889 5889 5889 5889 5889 5888 5887 5886 5884 5883 5881 5880 5877 5874 5872 5870 5867 5865 5863 5862 5861 5860
5869 5870 5873 5872 5871 5874 5877 5879 5880 5881 5881 5882 5883 5885 5885 5885 5885 5885 5885 5885 5885 5885 5885 5885 5884 5885 5886 5886 5887 5888 5888 5889 5890 5890 5890 5889 5888 5888 5888 5888 5889 5889 5888 5888 5889 5888 5886 5885 5883 5882 5881 5879 5878 5875 5872 5869 5868 5865 5863 5861 5860 5858 5857
5866 5869 5871 5870 5869 5871 5874 5876 5877 5878 5879 5880 5881 5882 5883 5883 5883 5883 5883 5883 5883 5883 5883 5882 5882 5883 5883 5885 5885 5886 5886 5887 5887 5887 5887 5886 5886 5887 5887 5887 5888 5888 5887 5887 5887 5886 5884 5883 5881 5880 5878 5877 5875 5873 5870 5868 5866 5864 5861 5860 5858 5856 5854
5863 5867 5867 5868 5869 5870 5872 5873 5874 5875 5876 5877 5878 5879 5880 5881 5880 5880 5880 5880 5881 5881 5880 5879 5880 5881 5882 5882 5883 5884 5885 5885 5884 5884 5883 5884 5886 5886 5886 5886 5887 5886 5885 5885 5884 5884 5883 5881 5880 5877 5876 5875 5873 5871 5869 5867 5865 5862 5860 5858 5856 5854 5851
5860 5863 5863 5865 5866 5868 5870 5871 5871 5872 5873 5874 5876 5876 5877 5878 5878 5878 5878 5878 5878 5878 5877 5876 5877 5879 5880 5880 5881 5882 5882 5882 5881 5881 5882 5884 5885 5885 5885 5885 5885 5884 5883 5883 5882 5882 5881 5879 5877 5876 5874 5872 5871 5869 5867 5865 5863 5860 5858 5856 5853 5850 5848
5857 5860 5860 5861 5863 5864 5866 5868 5869 5870 5870 5871 5872 5873 5874 5875 5875 5875 5875 5876 5875 5875 5874 5874 5875 5877 5878 5879 5880 5880 5880 5879 5879 5881 5882 5883 5884 5883 5883 5883 5883 5882 5882 5881 5880 5879 5878 5876 5874 5873 5871 5869 5868 5866 5864 5862 5860 5858 5855 5853 5850 5847 5845
5855 5857 5858 5858 5859 5861 5863 5864 5865 5867 5867 5868 5869 5870 5871 5872 5872 5872 5873 5873 5873 5873 5873 5873 5874 5876 5877 5877 5878 5878 5878 5876 5878 5881 5882 5881 5881 5881 5881 5881 5881 5880 5879 5879 5878 5877 5875 5874 5872 5870 5868 5867 5865 5863 5862 5859 5857 5855 5852 5849 5847 5844 5842
5852 5853 5854 5855 5855 5857 5859 5860 5862 5863 5864 5865 5866 5867 5868 5869 5869 5869 5870 5870 5871 5871 5871 5872 5873 5874 5875 5876 5876 5876 5876 5876 5878 5880 5880 5879 5879 5878 5878 5879 5878 5878 5877 5876 5875 5874 5872 5871 5869 5867 5866 5864 5862 5860 5858 5856 5854 5851 5848 5846 5843 5840 5838
5848 5849 5849 5850 5852 5853 5855 5856 5857 5859 5860 5862 5863 5864 5865 5865 5865 5866 5866 5867 5868 5868 5868 5870 5871 5872 5873 5874 5874 5874 5874 5875 5876 5877 5877 5876 5875 5874 5874 5875 5875 5874 5873 5872 5871 5870 5869 5867 5866 5864 5862 5861 5859 5857 5855 5854 5852 5849 5845 5843 5840 5837 5835
5843 5844 5845 5847 5849 5849 5849 5851 5853 5855 5857 5858 5859 5860 5861 5861 5862 5862 5863 5864 5865 5865 5866 5867 5869 5870 5870 5871 5871 5872 5872 5873 5874 5874 5873 5873 5872 5871 5870 5870 5870 5870 5869 5868 5867 5866 5865 5864 5862 5861 5859 5857 5856 5854 5852 5851 5849 5846 5843 5839 5837 5834 5831
5839 5841 5842 5844 5845 5846 5846 5847 5849 5852 5854 5855 5856 5857 5857 5858 5859 5859 5860 5861 5862 5863 5864 5865 5867 5867 5868 5868 5869 5869 5870 5871 5871 5871 5870 5870 5870 5869 5867 5866 5866 5866 5865 5864 5863 5862 5861 5860 5858 5856 5855 5853 5851 5849 5848 5846 5845 5842 5839 5835 5833 5830 5827
5837 5839 5838 5840 5843 5844 5844 5844 5845 5848 5850 5851 5852 5853 5854 5855 5855 5856 5857 5858 5859 5860 5861 5863 5864 5865 5865 5866 5866 5867 5867 5867 5867 5867 5867 5867 5866 5865 5863 5862 5862 5861 5860 5859 5858 5858 5857 5855 5853 5852 5850 5848 5846 5843 5842 5840 5839 5838 5834 5831 5829 5826 5823
5834 5835 5835 5838 5840 5841 5840 5841 5842 5844 5846 5848 5849 5850 5851 5852 5853 5853 5854 5855 5857 5858 5859 5860 5861 5862 5863 5863 5863 5864 5865 5864 5864 5864 5863 5863 5862 5861 5860 5859 5858 5857 5855 5854 5853 5852 5851 5850 5848 5846 5844 5842 5840 5838 5836 5834 5833 5832 5830 5826 5824 5822 5819
5828 5830 5831 5834 5836 5836 5837 5838 5839 5841 5843 5845 5845 5846 5848 5849 5849 5850 5851 5853 5854 5855 5856 5857 5858 5859 5860 5860 5860 5861 5861 5861 5861 5860 5859 5859 5858 5857 5856 5855 5854 5852 5851 5850 5849 5848 5846 5844 5842 5841 5839 5837 5834 5832 5830 5828 5827 5826 5824 5821 5820 5818 5816
5822 5824 5825 5827 5830 5831 5832 5835 5836 5838 5839 5841 5841 5843 5844 5845 5846 5847 5848 5849 5851 5852 5853 5854 5855 5856 5856 5856 5857 5857 5858 5858 5857 5856 5855 5855 5854 5853 5852 5851 5850 5848 5847 5846 5844 5843 5842 5839 5837 5835 5833 5831 5828 5826 5824 5822 5821 5820 5818 5816 5815 5813 5811
5816 5817 5818 5821 5824 5826 5828 5831 5833 5834 5835 5837 5838 5839 5840 5842 5843 5844 5845 5846 5848 5849 5850 5851 5852 5852 5852 5852 5853 5853 5853 5853 5852 5852 5851 5851 5850 5849 5848 5847 5846 5844 5843 5841 5840 5838 5836 5833 5831 5829 5827 5824 5822 5820 5818 5816 5815 5814 5812 5811 5810 5809 5806
5810 5812 5814 5816 5819 5821 5824 5827 5829 5830 5832 5834 5835 5836 5837 5838 5839 5840 5841 5843 5844 5846 5847 5848 5848 5848 5848 5849 5849 5849 5849 5849 5848 5848 5847 5847 5846 5846 5844 5843 5841 5840 5838 5836 5834 5832 5830 5827 5824 5822 5820 5818 5816 5815 5813 5810 5809 5808 5807 5806 5805 5803 5802
5805 5807 5809 5812 5814 5816 5819 5822 5824 5826 5828 5830 5831 5832 5833 5834 5835 5836 5838 5839 5841 5842 5843 5844 5844 5844 5844 5844 5845 5845 5845 5844 5844 5844 5843 5843 5842 5841 5840 5838 5836 5835 5833 5830 5828 5826 5824 5821 5818 5815 5813 5812 5810 5809 5808 5805 5804 5803 5802 5801 5801 5799 5797
5799 5802 5805 5807 5809 5812 5815 5817 5820 5822 5824 5826 5827 5829 5829 5830 5832 5833 5834 5836 5838 5839 5840 5840 5840 5840 5840 5840 5840 5840 5840 5840 5840 5839 5839 5838 5837 5836 5835 5833 5831 5830 5827 5825 5823 5820 5817 5814 5812 5809 5808 5806 5804 5804 5802 5800 5799 5799 5798 5797 5796 5794 5792
5793 5796 5799 5801 5804 5807 5810 5813 5815 5818 5820 5821 5823 5825 5826 5828 5829 5830 5831 5833 5834 5835 5836 5836 5837 5837 5837 5837 5836 5836 5835 5835 5834 5833 5833 5832 5832 5831 5830 5828 5826 5824 5821 5819 5817 5814 5811 5809 5807 5804 5802 5801 5800 5798 5797 5796 5795 5794 5794 5793 5791 5789 5788
5787 5791 5793 5795 5799 5803 5806 5808 5811 5813 5815 5817 5819 5821 5823 5824 5826 5827 5828 5829 5830 5831 5832 5832 5833 5833 5833 5833 5833 5832 5831 5830 5829 5828 5827 5827 5827 5826 5824 5823 5821 5818 5816 5813 5811 5808 5806 5804 5802 5800 5798 5797 5796 5794 5793 5793 5791 5790 5789 5788 5786 5784 5782
5781 5784 5787 5791 5795 5798 5800 5802 5805 5808 5811 5813 5815 5817 5819 5821 5822 5824 5825 5825 5826 5827 5828 5828 5829 5829 5829 5829 5828 5828 5827 5826 5824 5823 5822 5822 5821 5820 5819 5817 5815 5813 5810 5808 5805 5803 5801 5799 5798 5797 5795 5794 5792 5791 5790 5789 5787 5786 5784 5782 5780 5779 5777
5776 5779 5783 5787 5790 5792 5795 5797 5801 5804 5807 5809 5811 5813 5815 5816 5818 5819 5820 5821 5822 5823 5823 5824 5823 5823 5823 5823 5823 5823 5822 5821 5819 5818 5817 5817 5816 5814 5813 5812 5810 5808 5805 5803 5801 5798 5797 5795 5794 5793 5791 5790 5788 5787 5786 5785 5783 5781 5779 5777 5775 5774 5772
5770 5774 5777 5780 5783 5787 5790 5794 5797 5800 5802 5804 5806 5808 5810 5811 5813 5814 5815 5817 5818 5818 5818 5818 5818 5818 5818 5819 5819 5818 5817 5816 5814 5813 5812 5811 5810 5809 5808 5807 5805 5803 5801 5799 5797 5795 5793 5791 5790 5789 5787 5786 5785 5783 5782 5780 5778 5776 5774 5772 5770 5769 5767
5765 5768 5771 5775 5779 5783 5787 5790 5793 5795 5798 5800 5802 5803 5805 5807 5808 5810 5811 5812 5813 5813 5813 5813 5813 5813 5813 5814 5813 5813 5812 5811 5809 5808 5807 5806 5805 5804 5803 5801 5800 5798 5796 5794 5793 5791 5789 5787 5785 5784 5783 5781 5780 5778 5776 5775 5773 5771 5769 5767 5765 5763 5761
5761 5765 5768 5772 5775 5778 5782 5785 5788 5790 5793 5795 5796 5798 5800 5802 5803 5805 5805 5806 5807 5807 5808 5808 5808 5808 5808 5808 5807 5806 5806 5805 5804 5802 5801 5800 5799 5798 5797 5796 5795 5793 5791 5790 5788 5786 5784 5782 5781 5779 5778 5776 5775 5773 5771 5769 5768 5766 5764 5762 5760 5758 5755
5758 5762 5765 5768 5771 5774 5777 5780 5783 5785 5788 5790 5792 5794 5795 5796 5798 5798 5799 5800 5801 5802 5802 5802 5802 5803 5803 5802 5801 5800 5800 5799 5798 5797 5796 5794 5793 5792 5791 5790 5789 5788 5786 5785 5783 5781 5779 5777 5776 5775 5773 5771 5770 5768 5766 5764 5762 5761 5759 5757 5754 5752 5750
5754 5757 5760 5763 5766 5769 5772 5775 5777 5780 5782 5784 5786 5788 5789 5790 5791 5792 5793 5794 5794 5795 5796 5796 5797 5797 5797 5796 5795 5794 5793 5793 5792 5791 5790 5788 5787 5786 5785 5784 5783 5782 5781 5779 5778 5776 5774 5772 5771 5770 5768 5766 5764 5762 5760 5758 5756 5755 5754 5751 5748 5746 5745
5749 5752 5756 5758 5761 5764 5767 5769 5772 5774 5776 5778 5780 5782 5783 5784 5785 5786 5787 5788 5789 5790 5790 5790 5791 5791 5791 5790 5789 5788 5787 5787 5786 5785 5783 5782 5781 5780 5779 5778 5777 5776 5775 5774 5772 5771 5769 5767 5766 5764 5762 5760 5758 5756 5755 5753 5751 5750 5748 5746 5743 5740 5739
5745 5748 5751 5754 5757 5759 5762 5764 5767 5769 5771 5773 5775 5776 5777 5779 5780 5781 5782 5782 5783 5783 5783 5784 5785 5785 5784 5783 5782 5782 5781 5781 5779 5778 5777 5776 5776 5774 5773 5772 5771 5771 5769 5768 5767 5765 5763 5761 5760 5758 5757 5755 5752 5750 5749 5748 5746 5744 5743 5740 5738 5735 5733
5740 5743 5746 5749 5752 5754 5756 5759 5761 5764 5766 5768 5769 5770 5772 5773 5775 5775 5776 5776 5776 5777 5777 5778 5778 5778 5777 5776 5776 5776 5775 5774 5773 5772 5771 5770 5770 5769 5767 5766 5766 5765 5764 5762 5761 5759 5757 5756 5754 5752 5751 5749 5747 5745 5744 5742 5741 5739 5737 5734 5733 5730 5729